Regional Weather Roundup
Issued by NWS Grand Forks, ND

Home | Current Version | Previous Version | Text Only | Print | Product List | Glossary Off
Versions: 1 2 3 4 5 6 7 8 9 10 11 12 13 14 15 16 17 18 19 20 21 22 23 24 25 26 27 28 29 30 31 32 33 34 35 36 37 38 39 40 41 42 43 44 45 46 47 48 49 50

000
ASUS43 KFGF 230831
RWRFGF
PRAIRIE TO PINES  WEATHER ROUNDUP
NATIONAL WEATHER SERVICE EASTERN NORTH DAKOTA/GRAND FORKS ND
300 AM CDT WED APR 23 2014

 **SATELLITE DATA USED TO AUGMENT SKY COVER AT AUTOMATED STATIONS**
 *****  WEATHER ACROSS EASTERN NORTH DAKOTA  *****

CITY           SKY/WX    TMP DP  RH WIND       PRES   REMARKS
GRAND FORKS    PTCLDY    44  27  51 SE12      29.95F
GRAND FRKS AFB PTCLDY    40  29  63 SE10      29.95S
GRAND FRKS NWS   N/A     43 N/A N/A SE16        N/A
DEVILS LAKE    PTCLDY    43  30  61 SE17G23   29.86F
FARGO          CLOUDY    47  28  47 SE13      29.94F
WAHPETON ARPT  CLOUDY    46  30  53 SE15G21   29.95F
$$

 ***** WEATHER ACROSS CENTRAL AND WESTERN NORTH DAKOTA  *****

CITY           SKY/WX    TMP DP  RH WIND       PRES   REMARKS
BISMARCK       CLOUDY    52  40  63 SE24G31   29.70S
MINOT          MOCLDY    47  33  58 E20G25    29.71F
JAMESTOWN      CLOUDY    50  35  56 SE23G31   29.83F
MINOT AFB      PTCLDY    46  34  63 SE23      29.71F
GARRISON         N/A     50  35  56 E18G25    29.67F
WILLISTON      CLOUDY    52  33  48 E25G40    29.51F
DICKINSON      CLOUDY    52  33  48 E18G28    29.53F
HETTINGER      CLOUDY    51  33  50 E15       29.51F
$$

 *****  OTHER AIRPORT OBSERVATIONS IN OUR AREA  *****

CITY           SKY/WX    TMP DP  RH WIND       PRES   REMARKS
WALHALLA       PTSUNNY   36  34  93 E6        29.96F
GRAFTON AIRPOR FAIR      39  28  65 SE10      29.96S
VALLEY CITY AR FAIR      46  32  57 SE18G24   29.88F
CANDO          FAIR      41  32  70 E17       29.86F
CAVALIER APRT  FAIR      36  28  75 E6        29.96F
GWINNER        PTSUNNY   48  39  71 SE20G26   29.91S
SHEYENNE NWR     N/A     46  33  61 SE9       29.95
ROLLA          FAIR      37  32  81 SE15      29.87F
 ***** THE ABOVE OBSERVATIONS ARE NON NWS ARE NOT QUALITY
       CONTROLLED AND MAY MIS-REPORT RAIN FOR SNOW...
$$

  *****  WEATHER ACROSS NORTHERN MINNESOTA  *****

CITY           SKY/WX    TMP DP  RH WIND       PRES   REMARKS
FLAG ISLAND    CLEAR     36  21  55 E3        30.05F
WARROAD        CLEAR     34  25  69 SE6       30.04F
ROSEAU         CLEAR     39  25  56 SE10      30.02F
HALLOCK        CLOUDY    41  25  52 E12       29.97F
THF RVR FALLS  CLEAR     37  23  56 E10       30.00F
BAUDETTE       CLEAR     34  22  61 SE6       30.06F
WASKISH        CLEAR     34  23  64 E5        30.06S
CROOKSTON      CLEAR     39  28  65 SE10      29.98S
$$
  *****  WEATHER ACROSS CENTRAL AND WEST MINNESOTA  *****

CITY           SKY/WX    TMP DP  RH WIND       PRES   REMARKS
FOSSTON        CLEAR     39  21  48 SE9       30.00F
BEMIDJI        CLEAR     31  20  63 E5        30.03F
PARK RAPIDS    PTCLDY    38  22  52 E6        30.02S
ELBOW LAKE     CLOUDY    47  29  50 SE14G22   29.97F
WADENA         MOCLDY    39  27  60 SE7       30.01F
DETROIT LAKES  MOCLDY    43  28  56 SE12G17   29.99F
MOORHEAD       MOCLDY    46  30  53 SE10      29.96F
FERGUS FALLS   CLOUDY    48  25  40 SE14      29.94F
MORRIS MN      CLOUDY    46  30  53 SE16      29.98S
STAPLES        PTCLDY    39  25  56 MISG      30.03F
$$
  *****  WEATHER ELSEWHERE ACROSS MINNESOTA  *****

CITY           SKY/WX    TMP DP  RH WIND       PRES   REMARKS
DULUTH         CLEAR     33  22  63 E8        30.10S
INTRNTL FALLS  CLEAR     25  21  85 CALM      30.08F
ELY            CLEAR     25  21  86 CALM      30.11S
CLOQUET        CLEAR     34  21  60 E3        30.10S
WHEATON        CLOUDY    50  36  57 SE18      29.97S
BRAINERD       CLEAR     36  24  62 CALM      30.06S
HIBBING        CLEAR     26  21  81 CALM      30.09F
ALEXANDRIA     CLOUDY    45  27  49 SE14      30.01S
SAINT CLOUD    MOCLDY    43  23  45 E6        30.06S
MINNEAPOLIS    MOCLDY    44  26  49 SE9       30.09R
$$

  *****  WEATHER ACROSS SOUTH DAKOTA  *****

CITY           SKY/WX    TMP DP  RH WIND       PRES   REMARKS
SIOUX FALLS    MOCLDY    53  34  48 SE17G25   29.89F
BROOKINGS      NOT AVBL
WATERTOWN      CLOUDY    51  34  52 SE15G24   29.89F
HURON          CLOUDY    56  33  42 SE17G29   29.80F
SISSETON         N/A     46  39  76 S15       29.93F
ABERDEEN       CLOUDY    51  39  63 SE21      29.80F
MITCHELL       LGT RAIN  53  38  56 SE23      29.82F
PIERRE         CLOUDY    58  32  37 SE30G39   29.56F
MOBRIDGE       CLOUDY    56  33  42 SE25G33   29.61F
RAPID CITY     PTCLDY    54  44  69 SE13      29.51F
$$

  *****  SOME WEATHER IN NEARBY STATES *****

CITY           SKY/WX    TMP DP  RH WIND       PRES   REMARKS
GLASGOW MT     PTCLDY    55  31  39 E29G37    29.34F
GREAT FALLS MT LGT RAIN  42  39  89 W13       29.56F
CHEYENNE WY    MOCLDY    54  34  46 S6        29.64F
SCOTTSBLUFF NE CLOUDY    58  42  55 SE14      29.54F
OMAHA NE       MOCLDY    57  34  41 SE17      29.95F
DES MOINES IA  PTCLDY    53  32  44 E10       30.03F
DAVENPORT IA   PTCLDY    39  30  70 SE9       30.10S
CHICAGO IL     CLEAR     36  26  67 N8        30.11S
EAU CLAIRE WI  CLEAR     32  25  75 NE5       30.11S
LA CROSSE WI   CLEAR     40  27  59 VRB3      30.12S
$$

  *****  SOME NATIONAL WEATHER *****

CITY           SKY/WX    TMP DP  RH WIND       PRES   REMARKS
LA GUARDIA NY  MOCLDY    56  42  59 NW14      29.50R
RALEIGH NC     PTCLDY    59  53  80 W3        29.71R
ATLANTA GA     CLEAR     59  58  96 NW9       29.85F
NEW ORLEANS LA CLEAR     65  63  93 CALM      29.93S
OKLAHOMA CITY  PTCLDY    55  42  61 SE9       29.91F
ALBUQUERQUE NM MOCLDY    64  29  26 S7        29.85F
SALT LAKE CITY LGT RAIN  41  41 100 VRB3      29.89R
LOS ANGELES CA MOCLDY    58  48  69 E7        29.93R
BOISE ID       CLEAR     37  31  78 CALM      29.94R
SEATTLE WA     LGT RAIN  45  43  93 S15       29.89S
$$

*** WEATHER ACROSS MANITOBA...SASKATCHEWAN AND ONTARIO ***
                ***ONTARIO***

CITY           SKY/WX    TMP DP  RH WIND       PRES   REMARKS
GERALDTON      CLEAR     19  18  93 CALM      30.09S
THUNDER BAY    PTCLDY    25  23  93 W3        30.13F
SIOUX LOOKOUT  CLEAR     25  21  86 SE2       30.09S
TORONTO        MOCLDY    37  32  81 N23G33    29.75R
BIG TROUT LK   CLOUDY    25  19  80 NW2       30.09R
PICKLE LAKE    NOT AVBL
DRYDEN         CLEAR     34  21  60 S2        30.09S
KENORA         CLEAR     34  21  60 SE6       30.07
$$
                *** MANITOBA***

CITY           SKY/WX    TMP DP  RH WIND       PRES   REMARKS
BRANDON        PTCLDY    43  34  70 SE13      29.91F
DAUPHIN        CLEAR     41  36  81 SE15G21   29.92F
ISLAND LAKE    PTCLDY    32  30  93 E23       30.05  WCI  19
PILOT MOUND      N/A     41  30  65 E16         N/A
THE PAS        CLEAR     36  28  75 E8          N/A
THOMPSON       CLEAR     30  27  86 NE13      30.10R WCI  20
WINNIPEG       CLEAR     39  21  48 SE13      30.01F
LYNN LAKE      CLEAR     27  23  86 E7        30.12R WCI  19
CHURCHILL      CLOUDY    23  23 100 N12       30.23R WCI  12
GILLAM         MOCLDY    28  21  74 NE9       30.13R WCI  20
$$
                ***SASKATCHEWAN***

CITY           SKY/WX    TMP DP  RH WIND       PRES   REMARKS
ESTEVAN        CLOUDY    46  34  61 SE21G28   29.65F
KINDERSLEY     CLOUDY    50  36  57 E23       29.45F
LLOYDMINSTER   CLOUDY    48  36  61 E28G37    29.51F
PRINCE ALBERT  MOCLDY    43  32  65 E17G24    29.76F
REGINA         MOCLDY    48  34  57 E26G36    29.63F
YORKTON        CLEAR     41  34  75 SE15      29.82F
N. BATTLEFORD  CLEAR     46  37  71 E28G36    29.58F
LA RONGE       CLEAR     41  28  60 E18G25    29.90F
SASKATOON      MOCLDY    46  36  66 SE24G36   29.62F
SWIFT CURRENT  CLOUDY    52  32  46 SE16G24   29.44R
$$
NOTE: THESE ARE AUTOMATED STATIONS WITH LIMITED QUALITY CONTROL
      "FAIR" INDICATES FEW OR NO CLOUDS BELOW 12,000 FEET WITH NO
      SIGNIFICANT WEATHER AND/OR OBSTRUCTIONS TO VISIBILITY.
      SKY/WX - SKY CONDITION AND SIGNIFICANT WEATHER.
      TMP - AIR TEMPERATURE.    DP   - DEWPOINT TEMPERATURE.
      RH  - RELATIVE HUMIDITY.  PRES - PRESSURE.
      HX  - HEAT INDEX.         WCI  - WIND CHILL INDEX.
$



USA.gov is the U.S. government's official web portal to all federal, state and local government web resources and services.